Flag for Germany Weather past 2 weeks in Kamp-Lintfort, North Rhine-Westphalia, Germany

Now
73 °F

Overcast.


Feels Like: 75 °F
Forecast: 65 / 81 °F
Wind: 5 mph from Northeast

Location: Duesseldorf

Current Time: Jul 22, 2014 at 1:59:12 PM

Latest Report: Jul 22, 2014 at 1:00 PM


Visibility: 16 mi

Pressure: 30.06 "Hg

Humidity: 71%

Dew point: 63 °F

Location of Kamp-LintfortLocation

Historic Weather in Kamp-Lintfort — Graph

°F

Kamp-Lintfort temperature yesterday

Maximum temperature yesterday: 69 °F (at 12:00 PM)
Minimum temperature yesterday: 66 °F (at 9:00 AM)
Average temperature yesterday: 68 °F

Past Weeks' High & Low Weather Summary

 TemperatureHumidityPressure
High93 °F (Jul 19, 5:00 PM)96% (Jul 9, 6:00 PM)30.19 "Hg (Jul 9, 6:00 PM)
Low53 °F (Jul 15, 3:00 AM)25% (Jul 19, 3:00 PM)29.66 "Hg (Jul 9, 6:00 PM)
Average69 °F74%29.94 "Hg
* Reported Jul 7 12:00 Noon — Jul 22 12:00 Noon, Kamp-Lintfort, Weather by CustomWeather, © 2014

Note: Actual official high and low records may vary slightly from our data, if they occured in-between our weather recording intervals... More about our weather records

Advertising

Kamp-Lintfort weather history for previous 24 hours

 ConditionsComfort  
Time TempWeatherWind HumidityBarometerVisibility
12:00 PM
Jul 22
70 °FPartly sunny.6 mph74%30.05 "Hg12 mi
10:00 AM68 °FPartly sunny.5 mph84%30.04 "Hg9 mi
9:00 AM67 °FPartly sunny.5 mph87%30.03 "Hg5 mi
8:00 AM67 °FFog.3 mph93%30.01 "Hg2 mi
7:00 AM67 °FLow clouds.3 mph95%30.00 "Hg1 mi
6:00 AM67 °FLight rain. Low clouds.2 mph95%29.99 "Hg2 mi
4:00 AM67 °FLow clouds.3 mph95%29.98 "Hg2 mi
3:00 AM67 °FRain. Low clouds.2 mph95%29.98 "Hg2 mi
2:00 AM67 °FFog.2 mph95%29.98 "Hg2 mi
1:00 AM67 °FFog.2 mph94%29.98 "Hg2 mi
12:00 AM67 °FFog.2 mph93%29.98 "Hg2 mi
10:00 PM
Jul 21
66 °FLow clouds.3 mph93%29.97 "Hg2 mi
9:00 PM67 °FRain. Low clouds.3 mph93%29.95 "Hg3 mi
8:00 PM68 °FDrizzle. Low clouds.3 mph92%29.94 "Hg4 mi
7:00 PM68 °FLow clouds.3 mph92%29.93 "Hg4 mi
6:00 PM68 °FRain. Low clouds.3 mph93%29.93 "Hg3 mi
4:00 PM67 °FDrizzle. Low clouds.6 mph89%29.92 "Hg4 mi
3:00 PM68 °FLight rain. Overcast.3 mph84%29.91 "Hg12 mi
2:00 PM69 °FLow clouds.3 mph81%29.91 "Hg16 mi
1:00 PM69 °FOvercast.2 mph82%29.91 "Hg16 mi
Weather by CustomWeather, © 2014

See weather overviewHow to use our weather pages